Valladolid Airport, Spain

10:34 AM CEST on June 25, 2017 (GMT +0200)
Villanubla

Weather History for LEVD - September, 2012

Change the Weather History Date:

Thursday, September 20, 2012

  Actual Average Record
Temperature  
Mean Temperature 65 °F -  
Max Temperature 82 °F - - ()
Min Temperature 48 °F - - ()
Growing Degree Days 15 (Base 50)    
Moisture  
Dew Point 47 °F    
Average Humidity 49    
Maximum Humidity 87    
Minimum Humidity 28    
Precipitation  
Precipitation 0.00 in - - ()
Sea Level Pressure  
Sea Level Pressure 30.04 in    
Wind  
Wind Speed 5 mph ()    
Max Wind Speed 9 mph    
Max Gust Speed -    
Visibility 6.2 miles    
Events      
T = Trace of Precipitation, MM = Missing Value Source: Averaged Metar Reports

Daily Weather History Graph

Daily Weather History Graph

Search for Another Location

Airport or City:

Trip Planner

Search our weather history database for the weather conditions in past years. The results will help you decide how hot, cold, wet, or windy it might be!

Date:

Astronomy

Sep. 20, 2012 Rise Set
Actual Time 8:05 AM CEST 8:19 PM CEST
Civil Twilight 7:37 AM CEST 8:47 PM CEST
Nautical Twilight 7:04 AM CEST 9:19 PM CEST
Astronomical Twilight 6:31 AM CEST 9:53 PM CEST
Moon 1:12 PM CEST (9/20) 11:03 PM CEST (9/20)
Length of Visible Light 13h 10m
Length of Day
12h 14m
Waxing Crescent, 24% of the Moon is Illuminated
Sep 20
Waxing Crescent
Sep 22
First Quarter
Sep 30
Full
Oct 8
Last Quarter
Oct 15
New

Hourly Weather History & Observations

Time (CEST) Temp. Dew Point Humidity Pressure Visibility Wind Dir Wind Speed Gust Speed Precip Events Conditions
6:30 AM 48.2 °F 42.8 °F 82% 30.06 in - ENE 8.1 mph - N/A   Clear
7:00 AM 48.2 °F 44.6 °F 87% 30.06 in - ENE 9.2 mph - N/A   Clear
7:30 AM 48.2 °F 44.6 °F 87% 30.06 in - ENE 8.1 mph - N/A   Clear
8:00 AM 48.2 °F 44.6 °F 87% 30.06 in - ENE 9.2 mph - N/A   Clear
8:30 AM 48.2 °F 42.8 °F 82% 30.06 in - ENE 6.9 mph - N/A   Clear
9:00 AM 50.0 °F 44.6 °F 82% 30.06 in - ENE 6.9 mph - N/A   Clear
9:30 AM 51.8 °F 44.6 °F 76% 30.06 in - East 9.2 mph - N/A   Clear
10:00 AM 55.4 °F 44.6 °F 67% 30.06 in - East 6.9 mph - N/A   Clear
10:30 AM 59.0 °F 46.4 °F 63% 30.09 in - East 4.6 mph - N/A   Clear
11:00 AM 62.6 °F 46.4 °F 55% 30.09 in - East 4.6 mph - N/A   Clear
11:30 AM 66.2 °F 48.2 °F 52% 30.09 in - ESE 4.6 mph - N/A   Clear
12:00 PM 69.8 °F 51.8 °F 53% 30.09 in - SE 2.3 mph - N/A   Clear
12:30 PM 71.6 °F 51.8 °F 50% 30.06 in - SSE 3.5 mph - N/A   Clear
1:00 PM 73.4 °F 51.8 °F 47% 30.06 in - SE 4.6 mph - N/A   Clear
2:00 PM 77.0 °F 51.8 °F 41% 30.06 in - South 4.6 mph - N/A   Clear
2:30 PM 78.8 °F 50.0 °F 36% 30.06 in - South 4.6 mph - N/A   Clear
3:00 PM 78.8 °F 48.2 °F 34% 30.04 in - SW 5.8 mph - N/A   Clear
3:30 PM 80.6 °F 48.2 °F 32% 30.04 in - SW 3.5 mph - N/A   Clear
4:00 PM 82.4 °F 46.4 °F 28% 30.04 in - WSW 5.8 mph - N/A   Clear
4:30 PM 80.6 °F 46.4 °F 30% 30.01 in 6.2 mi WSW 1.2 mph - N/A   Partly Cloudy
5:00 PM 80.6 °F 46.4 °F 30% 30.01 in 6.2 mi SW 4.6 mph - N/A   Partly Cloudy
5:30 PM 80.6 °F 48.2 °F 32% 30.01 in 6.2 mi Variable 1.2 mph - N/A   Partly Cloudy
6:00 PM 82.4 °F 48.2 °F 30% 30.01 in 6.2 mi Calm Calm - N/A   Partly Cloudy
6:30 PM 82.4 °F 46.4 °F 28% 30.01 in - WSW 6.9 mph - N/A   Clear
7:00 PM 80.6 °F 44.6 °F 28% 30.01 in - West 5.8 mph - N/A   Clear
7:30 PM 80.6 °F 44.6 °F 28% 30.01 in - West 5.8 mph - N/A   Clear
8:00 PM 78.8 °F 44.6 °F 30% 30.01 in - WSW 4.6 mph - N/A   Clear
8:30 PM 75.2 °F 44.6 °F 34% 30.01 in - WSW 3.5 mph - N/A   Clear
9:00 PM 75.2 °F 44.6 °F 34% 30.01 in - WSW 1.2 mph - N/A   Clear
9:30 PM 75.2 °F 44.6 °F 34% 30.01 in - Calm Calm - N/A   Clear
10:00 PM 75.2 °F 46.4 °F 36% 30.01 in - South 3.5 mph - N/A   Clear
10:30 PM 75.2 °F 48.2 °F 38% 30.01 in - South 8.1 mph - N/A   Clear